Location: Mannheim
(49.4880°N, 8.4650°E)
Time: 08:40:50
(UTC+02:00)

ISS - Visible Passes

Search period start: 30 September 2023 00:00
Search period end: 10 October 2023 00:00
Orbit: 414 x 421 km, 51.6° (Epoch: 29 September)

Date Brightness Start Highest point End Pass type
(mag) Time Alt. Az. Time Alt. Az. Time Alt. Az.
30 Sep -3.2 20:04:39 10° WNW 20:07:56 52° SSW 20:10:44 13° SE visible
30 Sep -0.8 21:42:58 10° WSW 21:43:40 11° SW 21:43:40 11° SW visible
01 Oct -1.4 20:53:58 10° W 20:56:15 17° SW 20:57:42 14° S visible
02 Oct -1.8 20:05:27 10° W 20:08:17 25° SW 20:11:06 10° SSE visible
04 Oct -0.8 20:06:50 10° WSW 20:08:08 12° SW 20:09:27 10° SSW visible
